User: anonymous
Location: Theodore Roosevelt National Park
(46.9990°N, 103.4631°W)
Time: 06:17:45
(UTC-06:00)
Language:

Cosmos 2219 Rocket - Orbit

View from above orbital plane
View from above orbital plane
View from above satellite
View from above satellite

Ground track
Ground track

The orbit data is extracted from the following two-line orbital elements,

1 22220U 92076B   14110.82788351 -.00000087  00000-0 -19641-4 0  2895
2 22220 071.0008 326.8069 0014543 236.5768 199.0167 14.16305589107467
Epoch (UTC): 20 April 2014 19:52:09
Eccentricity: 0.0014543
inclination: 71.0008°
perigee height: 827 km
apogee height: 848 km
right ascension of ascending node: 326.8069°
argument of perigee: 236.5768°
revolutions per day: 14.16305589
mean anomaly at epoch: 199.0167°
orbit number at epoch: 10746

The dashed part of the orbit path shows where the satellite is in the earth's shadow,  

DLR